• In Romania
  • List of Countries
  • For 7 days
  • Water Temperature
  • Satellite Maps
  • Weather Map
  • Weather Widgets
  • user-avatar
    Login

    Hourly Weather Kultura

    Today, 23 October, Tuesday

    Time Temperature Precipitation Wind Pressure Humidity
    00:00 +3°C° 0 mm 3 mps 764 mmHg 67%
    01:00 +4°C° 0 mm 3 mps 763 mmHg 66%
    02:00 +4°C° 0 mm 3 mps 763 mmHg 65%
    03:00 +4°C° 0 mm 3 mps 763 mmHg 67%
    04:00 +4°C° 0 mm 3 mps 762 mmHg 66%
    05:00 +4°C° 0 mm 4 mps 762 mmHg 66%
    06:00 +4°C° 0 mm 4 mps 761 mmHg 65%
    07:00 +5°C° 0 mm 4 mps 761 mmHg 62%
    08:00 +6°C° 0 mm 5 mps 761 mmHg 59%
    09:00 +6°C° 0 mm 5 mps 760 mmHg 56%
    10:00 +7°C° 0 mm 5 mps 760 mmHg 52%
    11:00 +8°C° 0 mm 5 mps 759 mmHg 48%
    12:00 +9°C° 0 mm 5 mps 758 mmHg 45%
    13:00 +9°C° 0 mm 5 mps 758 mmHg 45%
    14:00 +9°C° 0 mm 5 mps 757 mmHg 45%
    15:00 +9°C° 0 mm 5 mps 756 mmHg 45%
    16:00 +8°C° 0.1 mm 5 mps 756 mmHg 50%
    17:00 +8°C° 0.1 mm 6 mps 755 mmHg 55%
    18:00 +8°C° 0.1 mm 6 mps 754 mmHg 60%
    19:00 +8°C° 0 mm 5 mps 754 mmHg 61%
    20:00 +8°C° 0 mm 5 mps 753 mmHg 62%
    21:00 +9°C° 0 mm 5 mps 752 mmHg 63%
    22:00 +9°C° 0.1 mm 5 mps 752 mmHg 65%
    23:00 +10°C° 0.1 mm 4 mps 751 mmHg 67%

    Tomorrow, 24 October, Wednesday

    Time Temperature Precipitation Wind Pressure Humidity
    00:00 +10°C° 0.1 mm 4 mps 751 mmHg 68%
    01:00 +10°C° 0 mm 4 mps 751 mmHg 70%
    02:00 +10°C° 0 mm 4 mps 751 mmHg 71%
    03:00 +10°C° 0 mm 4 mps 751 mmHg 73%
    04:00 +9°C° 0 mm 3 mps 750 mmHg 77%
    05:00 +9°C° 0 mm 3 mps 750 mmHg 81%
    06:00 +8°C° 0 mm 3 mps 750 mmHg 86%
    07:00 +8°C° 0 mm 4 mps 750 mmHg 84%
    08:00 +10°C° 0 mm 4 mps 750 mmHg 83%
    09:00 +10°C° 0 mm 5 mps 750 mmHg 81%
    10:00 +10°C° 0 mm 5 mps 749 mmHg 76%
    11:00 +11°C° 0 mm 6 mps 749 mmHg 71%
    12:00 +13°C° 0 mm 6 mps 749 mmHg 66%
    13:00 +13°C° 0 mm 5 mps 749 mmHg 63%
    14:00 +13°C° 0 mm 5 mps 749 mmHg 59%
    15:00 +13°C° 0 mm 4 mps 748 mmHg 55%
    16:00 +12°C° 0 mm 4 mps 748 mmHg 59%
    17:00 +11°C° 0 mm 4 mps 748 mmHg 63%
    18:00 +10°C° 0 mm 3 mps 748 mmHg 66%
    19:00 +10°C° 0 mm 4 mps 748 mmHg 70%
    20:00 +10°C° 0 mm 4 mps 748 mmHg 74%
    21:00 +9°C° 0 mm 5 mps 748 mmHg 77%
    22:00 +9°C° 0 mm 5 mps 748 mmHg 77%
    23:00 +9°C° 0 mm 5 mps 748 mmHg 77%

    Day after tomorrow, 25 October, Thursday

    Time Temperature Precipitation Wind Pressure Humidity
    00:00 +9°C° 0 mm 5 mps 747 mmHg 77%
    01:00 +9°C° 0.5 mm 5 mps 747 mmHg 78%
    02:00 +9°C° 0.5 mm 6 mps 747 mmHg 80%
    03:00 +10°C° 0.5 mm 6 mps 747 mmHg 81%
    04:00 +10°C° 0.5 mm 6 mps 746 mmHg 82%
    05:00 +10°C° 0.5 mm 6 mps 746 mmHg 82%
    06:00 +10°C° 0.5 mm 6 mps 746 mmHg 83%
    07:00 +11°C° 0.4 mm 6 mps 745 mmHg 77%
    08:00 +11°C° 0.4 mm 7 mps 745 mmHg 72%
    09:00 +11°C° 0.4 mm 7 mps 745 mmHg 66%
    10:00 +12°C° 0.1 mm 7 mps 744 mmHg 63%
    11:00 +12°C° 0.1 mm 7 mps 744 mmHg 60%
    12:00 +14°C° 0.1 mm 7 mps 744 mmHg 57%
    13:00 +15°C° 0 mm 7 mps 743 mmHg 58%
    14:00 +15°C° 0 mm 6 mps 743 mmHg 60%
    15:00 +16°C° 0 mm 6 mps 742 mmHg 61%
    16:00 +16°C° 0.1 mm 5 mps 742 mmHg 65%
    17:00 +15°C° 0.1 mm 4 mps 741 mmHg 69%
    18:00 +16°C° 0.1 mm 3 mps 741 mmHg 73%
    19:00 +14°C° 0.2 mm 3 mps 741 mmHg 76%
    20:00 +14°C° 0.2 mm 3 mps 741 mmHg 79%
    21:00 +13°C° 0.2 mm 3 mps 741 mmHg 82%
    22:00 +13°C° 0.5 mm 3 mps 741 mmHg 85%
    23:00 +12°C° 0.5 mm 3 mps 741 mmHg 88%

    26 October, Friday

    Time Temperature Precipitation Wind Pressure Humidity
    00:00 +13°C° 0.5 mm 2 mps 741 mmHg 91%
    01:00 +11°C° 2 mm 3 mps 741 mmHg 91%
    02:00 +11°C° 2 mm 3 mps 742 mmHg 90%
    03:00 +10°C° 2 mm 3 mps 742 mmHg 90%
    04:00 +10°C° 0.5 mm 3 mps 742 mmHg 86%
    05:00 +9°C° 0.5 mm 3 mps 743 mmHg 83%
    06:00 +8°C° 0.5 mm 3 mps 743 mmHg 79%
    07:00 +8°C° 0 mm 4 mps 744 mmHg 76%
    08:00 +8°C° 0 mm 4 mps 745 mmHg 72%
    09:00 +8°C° 0 mm 4 mps 745 mmHg 68%
    10:00 +9°C° 0 mm 5 mps 746 mmHg 64%
    11:00 +9°C° 0 mm 5 mps 746 mmHg 60%
    12:00 +10°C° 0 mm 5 mps 746 mmHg 56%
    13:00 +10°C° 0 mm 5 mps 747 mmHg 57%
    14:00 +10°C° 0 mm 4 mps 747 mmHg 57%
    15:00 +10°C° 0 mm 4 mps 747 mmHg 58%
    16:00 +10°C° 0.1 mm 4 mps 747 mmHg 61%
    17:00 +8°C° 0.1 mm 4 mps 748 mmHg 64%
    18:00 +8°C° 0.1 mm 3 mps 748 mmHg 67%
    19:00 +7°C° 0.1 mm 4 mps 749 mmHg 69%
    20:00 +6°C° 0.1 mm 4 mps 749 mmHg 70%
    21:00 +6°C° 0.1 mm 4 mps 749 mmHg 71%
    22:00 +5°C° 0 mm 4 mps 750 mmHg 73%
    23:00 +4°C° 0 mm 3 mps 750 mmHg 75%

    27 October, Saturday

    Time Temperature Precipitation Wind Pressure Humidity
    00:00 +4°C° 0 mm 3 mps 751 mmHg 77%
    01:00 +3°C° 0 mm 3 mps 751 mmHg 79%
    02:00 +3°C° 0 mm 3 mps 751 mmHg 80%
    03:00 +2°C° 0 mm 3 mps 752 mmHg 82%
    04:00 +2°C° 0 mm 3 mps 752 mmHg 82%
    05:00 +1°C° 0 mm 3 mps 752 mmHg 83%
    06:00 +1°C° 0 mm 3 mps 753 mmHg 83%
    07:00 +2°C° 0 mm 3 mps 753 mmHg 77%
    08:00 +3°C° 0 mm 4 mps 753 mmHg 72%
    09:00 +4°C° 0 mm 4 mps 754 mmHg 66%
    10:00 +5°C° 0 mm 5 mps 754 mmHg 63%
    11:00 +5°C° 0 mm 5 mps 754 mmHg 60%
    12:00 +5°C° 0 mm 6 mps 754 mmHg 57%
    13:00 +5°C° 0 mm 6 mps 754 mmHg 59%
    14:00 +5°C° 0 mm 6 mps 755 mmHg 61%
    15:00 +5°C° 0 mm 5 mps 755 mmHg 63%
    16:00 +5°C° 0 mm 5 mps 756 mmHg 65%
    17:00 +4°C° 0 mm 4 mps 756 mmHg 66%
    18:00 +3°C° 0 mm 4 mps 757 mmHg 68%
    19:00 +3°C° 0 mm 4 mps 757 mmHg 70%
    20:00 +3°C° 0 mm 4 mps 758 mmHg 71%
    21:00 +2°C° 0 mm 3 mps 758 mmHg 73%
    22:00 +2°C° 0 mm 3 mps 758 mmHg 75%
    23:00 +1°C° 0 mm 4 mps 758 mmHg 77%

    28 October, Sunday

    Time Temperature Precipitation Wind Pressure Humidity
    00:00 +1°C° 0 mm 4 mps 759 mmHg 79%
    01:00 +1°C° 0 mm 4 mps 758 mmHg 79%
    02:00 +1°C° 0 mm 5 mps 758 mmHg 79%
    03:00 +2°C° 0 mm 6 mps 758 mmHg 78%
    04:00 +2°C° 0.1 mm 7 mps 757 mmHg 77%
    05:00 +1°C° 0.1 mm 8 mps 757 mmHg 76%
    06:00 +2°C° 0.1 mm 8 mps 756 mmHg 75%
    07:00 +3°C° 0.4 mm 9 mps 756 mmHg 76%
    08:00 +3°C° 0.4 mm 9 mps 755 mmHg 76%
    09:00 +5°C° 0.4 mm 10 mps 755 mmHg 77%
    10:00 +6°C° 1.4 mm 9 mps 755 mmHg 80%
    11:00 +6°C° 1.4 mm 9 mps 754 mmHg 83%
    12:00 +7°C° 1.4 mm 8 mps 754 mmHg 86%
    13:00 +7°C° 0.9 mm 8 mps 754 mmHg 87%
    14:00 +9°C° 0.9 mm 7 mps 754 mmHg 88%
    15:00 +9°C° 0.9 mm 7 mps 754 mmHg 89%
    16:00 +9°C° 0.2 mm 7 mps 755 mmHg 87%
    17:00 +9°C° 0.2 mm 7 mps 755 mmHg 84%
    18:00 +9°C° 0.2 mm 6 mps 756 mmHg 82%
    19:00 +8°C° 0 mm 6 mps 757 mmHg 81%
    20:00 +8°C° 0 mm 5 mps 757 mmHg 80%
    21:00 +7°C° 0 mm 5 mps 758 mmHg 79%
    22:00 +7°C° 0 mm 4 mps 759 mmHg 78%
    23:00 +6°C° 0 mm 4 mps 760 mmHg 78%

    29 October, Monday

    Time Temperature Precipitation Wind Pressure Humidity
    00:00 +6°C° 0 mm 4 mps 760 mmHg 77%
    01:00 +5°C° 0 mm 3 mps 761 mmHg 77%
    02:00 +5°C° 0 mm 3 mps 761 mmHg 77%
    03:00 +4°C° 0 mm 3 mps 762 mmHg 76%
    04:00 +4°C° 0 mm 3 mps 763 mmHg 77%
    05:00 +5°C° 0 mm 2 mps 763 mmHg 77%
    06:00 +4°C° 0 mm 2 mps 763 mmHg 77%
    07:00 +5°C° 0 mm 2 mps 764 mmHg 73%
    08:00 +5°C° 0 mm 2 mps 764 mmHg 69%
    09:00 +5°C° 0 mm 2 mps 765 mmHg 66%
    10:00 +6°C° 0 mm 2 mps 765 mmHg 62%
    11:00 +7°C° 0 mm 1 mps 766 mmHg 59%
    12:00 +7°C° 0 mm 1 mps 766 mmHg 56%
    13:00 +7°C° 0 mm 1 mps 766 mmHg 55%
    14:00 +8°C° 0 mm 1 mps 766 mmHg 54%
    15:00 +8°C° 0 mm 1 mps 767 mmHg 54%
    16:00 +7°C° 0.1 mm 1 mps 767 mmHg 57%
    17:00 +7°C° 0.1 mm 1 mps 767 mmHg 61%
    18:00 +6°C° 0.1 mm 2 mps 767 mmHg 65%
    19:00 +6°C° 0.1 mm 2 mps 767 mmHg 67%
    20:00 +5°C° 0.1 mm 3 mps 768 mmHg 69%
    21:00 +4°C° 0.1 mm 3 mps 768 mmHg 71%
    22:00 +4°C° 0 mm 3 mps 768 mmHg 72%
    23:00 +4°C° 0 mm 3 mps 768 mmHg 74%
    Show more